Weerstation Grootegast  Weerstation Grootegast


15 daagse weersverwachting Lappeenranta (FI)

  • Overzicht
  • Per uur
  • 15 dagen
  • Extra
  • Vergelijk
  • Kaarten
  • Dagkaart
  • Meer »
  • Info
  • Statistieken
  • Directe link
    Temp 6h Neerslag Wind  
 08:13     17:32    Daglengte: 9:19 Vandaag
09:00
 
3
15:00
0.3 mm
3
21:00
0.7 mm
4
 08:15     17:29    Daglengte: 9:14 Morgen
03:00
 
5
09:00
 
5
15:00
 
5
21:00
 
3
 08:18     17:26    Daglengte: 9:08 Donderdag 25 Okt
03:00
 
3
09:00
 
1
15:00
 
2
21:00
 
2
 08:21     17:23    Daglengte: 9:02 Vrijdag 26 Okt
03:00
 
3
Locatie info
Region: Etelä-Karjala
Latitude: 61.0553°N
Longitude: 28.1891°E
104 masl
Postcode: 53100
Temp/Neerslag /Baro Onweer/Dauwpunt
    Temp Baro 1h Neerslag Dauwpunt Wind UV Bewolking  
 08:13     17:32    Daglengte: 9:19 Vandaag
09:00
Voelt als: -1.3°
996.8 hPa   0.6°
3
Windvlaag: 4.6 m/s
1%
10:00
Voelt als: -0.1°
996.3 hPa   0.6°
2
Windvlaag: 3.9 m/s
17%
11:00
Voelt als: 1.7°
995.2 hPa   0.8°
2
Windvlaag: 3.2 m/s
34%
12:00
Voelt als: 2.7°
994.4 hPa   1.4°
2
Windvlaag: 3.9 m/s
16%
13:00
Voelt als: 2.7°
993.5 hPa
29%
3.0°
3
Windvlaag: 5 m/s
73%
14:00
Voelt als: 2.8°
992.7 hPa 0.3 mm
79%
3.3°
3
Windvlaag: 4.4 m/s
78%
15:00
Voelt als: 2.9°
991.6 hPa
82%
3.3°
3
Windvlaag: 4.2 m/s
67%
16:00
Voelt als: 2.5°
990.8 hPa
82%
4.0°
3
Windvlaag: 4.8 m/s
57%
17:00
Voelt als: 2.2°
990.1 hPa
80%
4.2°
4
Windvlaag: 5 m/s
77%
18:00
Voelt als: 2.2°
989.6 hPa 0.7 mm
82%
4.2°
3
Windvlaag: 5.4 m/s
77%
19:00
Voelt als: 1.9°
989.1 hPa
82%
4.0°
4
Windvlaag: 6.2 m/s
55%
20:00
Voelt als: 1.6°
988.5 hPa
33%
3.5°
4
Windvlaag: 6 m/s
54%
21:00
Voelt als: 1.2°
988.2 hPa
17%
3.0°
4
Windvlaag: 5.4 m/s
64%
22:00
Voelt als: 0.6°
987.9 hPa
14%
2.6°
4
Windvlaag: 5 m/s
61%
23:00
Voelt als: 0.1°
987.7 hPa
22%
2.5°
4
Windvlaag: 4.9 m/s
65%
 08:15     17:29    Daglengte: 9:14 Morgen
00:00
Voelt als: -0.1°
987.5 hPa
27%
2.6°
4
Windvlaag: 4.5 m/s
77%
01:00
Voelt als: -0.3°
987.4 hPa
31%
2.6°
4
Windvlaag: 4.4 m/s
78%
02:00
Voelt als: -0.3°
987.5 hPa
69%
2.5°
4
Windvlaag: 4.2 m/s
75%
03:00
Voelt als: -0.4°
987.5 hPa
76%
2.5°
5
Windvlaag: 4.4 m/s
58%
04:00
Voelt als: -0.3°
987.7 hPa
76%
2.6°
4
Windvlaag: 4.7 m/s
62%
05:00
Voelt als: -0.1°
988.0 hPa
71%
2.4°
4
Windvlaag: 4.9 m/s
62%
06:00
Voelt als: -0.1°
988.6 hPa
22%
2.3°
4
Windvlaag: 4.6 m/s
71%
07:00
Voelt als: 0.1°
989.2 hPa
14%
2.4°
5
Windvlaag: 4.5 m/s
64%
08:00
Voelt als: 0.2°
989.8 hPa
14%
2.5°
5
Windvlaag: 4.1 m/s
58%
09:00
Voelt als: 0.3°
990.4 hPa
14%
2.5°
5
Windvlaag: 3.7 m/s
53%
10:00
Voelt als: 0.4°
991.1 hPa
14%
2.6°
5
Windvlaag: 4.7 m/s
48%
11:00
Voelt als: 0.8°
991.8 hPa
14%
2.5°
5
Windvlaag: 5.9 m/s
34%
12:00
Voelt als: 1.1°
992.6 hPa
14%
2.7°
5
Windvlaag: 6.3 m/s
43%
13:00
Voelt als: 1.3°
993.3 hPa
14%
2.6°
5
Windvlaag: 6.2 m/s
49%
14:00
Voelt als: 1.4°
994.0 hPa
18%
2.4°
5
Windvlaag: 6 m/s
46%
15:00
Voelt als: 1.6°
994.7 hPa
15%
2.1°
5
Windvlaag: 5.7 m/s
46%
16:00
Voelt als: 1.5°
995.1 hPa
14%
1.8°
5
Windvlaag: 5.7 m/s
45%
17:00
Voelt als: 1.5°
995.6 hPa
14%
1.6°
4
Windvlaag: 5.3 m/s
26%
18:00
Voelt als: 1.1°
996.2 hPa
14%
1.6°
4
Windvlaag: 4.4 m/s
39%
19:00
Voelt als: 0.8°
996.7 hPa
14%
1.5°
4
Windvlaag: 3.7 m/s
47%
20:00
Voelt als: 0.7°
996.9 hPa
14%
1.3°
4
Windvlaag: 3.2 m/s
38%
21:00
Voelt als: 0.7°
997.0 hPa
14%
1.0°
3
Windvlaag: 2.3 m/s
45%
22:00
Voelt als: 0.7°
997.0 hPa
14%
1.1°
3
Windvlaag: 1.7 m/s
56%
23:00
Voelt als: 0.7°
997.0 hPa
14%
1.2°
3
Windvlaag: 2.1 m/s
51%
 08:18     17:26    Daglengte: 9:08 Donderdag 25 Okt
00:00
Voelt als: 0.9°
996.8 hPa
14%
1.4°
3
Windvlaag: 2.2 m/s
56%
01:00
Voelt als: 0.8°
996.7 hPa
14%
1.4°
3
Windvlaag: 2.2 m/s
66%
02:00
Voelt als: 0.4°
996.5 hPa
14%
1.4°
3
Windvlaag: 2.9 m/s
72%
03:00
Voelt als: 0.0°
996.1 hPa
14%
1.2°
3
Windvlaag: 2.7 m/s
52%
04:00
Voelt als: -0.0°
995.6 hPa
14%
1.0°
3
Windvlaag: 1.9 m/s
43%
05:00
Voelt als: -0.3°
995.2 hPa
14%
0.6°
2
Windvlaag: 1.4 m/s
16%
06:00
Voelt als: -0.7°
994.6 hPa
21%
0.0°
2
Windvlaag: 1 m/s
19%
07:00
Voelt als: -0.3°
994.3 hPa
21%
-0.2°
2
Windvlaag: 1 m/s
19%
08:00
Voelt als: -0.1°
994.1 hPa
21%
-0.1°
2
Windvlaag: 0.7 m/s
19%
09:00
Voelt als: -0.1°
993.9 hPa
21%
-0.2°
1
Windvlaag: 1.2 m/s
19%
10:00
Voelt als: 0.7°
993.8 hPa
21%
-0.1°
1
Windvlaag: 1.1 m/s
44%
11:00
Voelt als: 1.4°
993.6 hPa
21%
-0.1°
1
Windvlaag: 1.8 m/s
41%
12:00
Voelt als: 1.7°
993.4 hPa
21%
-0.4°
1
Windvlaag: 2 m/s
68%
13:00
Voelt als: 1.7°
993.2 hPa
25%
-0.3°
1
Windvlaag: 2.2 m/s
63%
14:00
Voelt als: 1.8°
993.0 hPa
21%
-0.6°
2
Windvlaag: 2.7 m/s
43%
15:00
Voelt als: 2.0°
993.0 hPa
21%
-0.7°
2
Windvlaag: 2.7 m/s
35%
16:00
Voelt als: 1.6°
993.0 hPa
21%
-0.8°
2
Windvlaag: 2.7 m/s
46%
17:00
Voelt als: 1.0°
993.0 hPa
21%
-0.8°
2
Windvlaag: 2.6 m/s
50%
18:00
Voelt als: 0.6°
993.2 hPa
21%
-0.6°
2
Windvlaag: 2.1 m/s
52%
19:00
Voelt als: 0.1°
993.4 hPa
21%
-0.4°
2
Windvlaag: 0.9 m/s
55%
20:00
Voelt als: -0.8°
993.6 hPa
21%
-0.7°
2
Windvlaag: 2.1 m/s
46%
21:00
Voelt als: -0.8°
993.8 hPa
21%
-1.2°
2
Windvlaag: 2 m/s
69%
22:00
Voelt als: -1.4°
993.8 hPa
21%
-1.6°
2
Windvlaag: -2.9 m/s
68%
23:00
Voelt als: -1.5°
993.9 hPa
21%
-1.6°
2
Windvlaag: -3.4 m/s
62%
 08:21     17:23    Daglengte: 9:02 Vrijdag 26 Okt
00:00
Voelt als: -1.8°
993.8 hPa
21%
-1.5°
3
Windvlaag: -3.7 m/s
67%
01:00
Voelt als: -2.0°
993.8 hPa
21%
-1.6°
3
Windvlaag: -3.6 m/s
70%
02:00
Voelt als: -2.2°
993.7 hPa
22%
-1.6°
3
Windvlaag: -3.2 m/s
69%
03:00
Voelt als: -2.2°
993.7 hPa
22%
-1.5°
3
Windvlaag: -1.7 m/s
67%
04:00
Voelt als: -2.0°
993.4 hPa
22%
-1.6°
3
Windvlaag: 6.2 m/s
77%
05:00
Voelt als: -2.1°
993.5 hPa
21%
-1.7°
3
Windvlaag: 6 m/s
71%
06:00
Voelt als: -2.2°
993.6 hPa
21%
-1.8°
3
Windvlaag: 5.8 m/s
72%
07:00
Voelt als: -2.2°
993.6 hPa
21%
-2.0°
3
Windvlaag: 5.7 m/s
73%
08:00
Voelt als: -2.4°
993.8 hPa
21%
-2.1°
3
Windvlaag: 6.1 m/s
68%
Temp/Neerslag /Baro Onweer/Dauwpunt
    Temp Baro Neerslag Dauwpunt Wind Bewolking  
 08:13     17:32    Daglengte: 9:19 Vandaag
09:00
Voelt als: -1.3°
996.8 hPa   0.6°
3
1%
12:00
Voelt als: 2.7°
994.4 hPa   1.4°
2
16%
15:00
Voelt als: 2.9°
991.6 hPa 0.3 mm 3.3°
3
67%
18:00
Voelt als: 2.2°
989.6 hPa 0.7 mm 4.2°
3
77%
21:00
Voelt als: 1.2°
988.2 hPa   3.0°
4
64%
 08:15     17:29    Daglengte: 9:14 Morgen
00:00
Voelt als: -0.1°
987.5 hPa   2.6°
4
77%
03:00
Voelt als: -0.4°
987.5 hPa   2.5°
5
58%
06:00
Voelt als: -0.1°
988.6 hPa   2.3°
4
71%
09:00
Voelt als: 0.3°
990.4 hPa   2.5°
5
53%
12:00
Voelt als: 1.1°
992.6 hPa   2.7°
5
43%
15:00
Voelt als: 1.6°
994.7 hPa   2.1°
5
46%
18:00
Voelt als: 1.1°
996.2 hPa   1.6°
4
39%
21:00
Voelt als: 0.7°
997.0 hPa   1.0°
3
45%
 08:18     17:26    Daglengte: 9:08 Donderdag 25 Okt
00:00
Voelt als: 0.9°
996.8 hPa   1.4°
3
56%
03:00
Voelt als: 0.0°
996.1 hPa   1.2°
3
52%
06:00
Voelt als: -0.7°
994.6 hPa   0.0°
2
19%
09:00
Voelt als: -0.1°
993.9 hPa   -0.2°
1
19%
12:00
Voelt als: 1.7°
993.4 hPa   -0.4°
1
68%
15:00
Voelt als: 2.0°
993.0 hPa   -0.7°
2
35%
18:00
Voelt als: 0.6°
993.2 hPa   -0.6°
2
52%
21:00
Voelt als: -0.8°
993.8 hPa   -1.2°
2
69%
 08:21     17:23    Daglengte: 9:02 Vrijdag 26 Okt
00:00
Voelt als: -1.8°
993.8 hPa   -1.5°
3
67%
03:00
Voelt als: -2.2°
993.7 hPa   -1.5°
3
67%
06:00
Voelt als: -2.2°
993.6 hPa   -1.8°
3
72%
09:00
Voelt als: -2.6°
994.0 hPa   -2.1°
4
69%
12:00
Voelt als: -1.7°
996.4 hPa   -2.9°
4
87%
15:00
Voelt als: -1.4°
997.3 hPa   -3.4°
4
90%
18:00
Voelt als: -1.7°
998.7 hPa   -3.6°
4
86%
21:00
Voelt als: -1.7°
1000.2 hPa 0.2 mm -3.8°
3
82%
 08:23     17:20    Daglengte: 8:57 Zaterdag 27 Okt
00:00
Voelt als: -1.6°
1001.3 hPa   -2.7°
2
63%
03:00
Voelt als: -1.4°
1002.4 hPa   -1.7°
2
43%
06:00
Voelt als: -1.5°
1002.7 hPa   -1.8°
2
64%
09:00
Voelt als: -1.5°
1002.9 hPa   -1.8°
2
85%
12:00
Voelt als: -1.3°
1002.1 hPa   -2.3°
2
89%
15:00
Voelt als: -1.0°
1001.2 hPa   -2.9°
4
92%
18:00
Voelt als: -2.4°
1000.0 hPa   -1.6°
4
92%
21:00
Voelt als: -3.7°
998.9 hPa   -0.6°
5
92%
 08:26     17:17    Daglengte: 8:51 Zondag 28 Okt
00:00
Voelt als: -4.1°
999.8 hPa 0.5 mm -1.4°
5
92% warningclass
03:00
Voelt als: -4.4°
1000.7 hPa 1.0 mm -2.2°
6
92% warningclass
05:00
Voelt als: -4.5°
1003.5 hPa 0.7 mm -2.7°
5
69% warningclass
08:00
-0°
Voelt als: -4.6°
1006.4 hPa 1.2 mm -3.2°
5
47% warningclass
11:00
Voelt als: -4.0°
1009.1 hPa 0.3 mm -4.3°
4
64% warningclass
14:00
Voelt als: -3.5°
1011.8 hPa 1.1 mm -5.4°
4
81% warningclass
17:00
-0°
Voelt als: -3.9°
1013.8 hPa 0.8 mm -4.7°
3
54% warningclass
20:00
-1°
Voelt als: -4.1°
1015.7 hPa 2.1 mm -4.1°
3
27% warningclass
23:00
-1°
Voelt als: -4.6°
1017.4 hPa 2.4 mm -4.7°
3
19% warningclass
 08:29     17:14    Daglengte: 8:45 Maandag 29 Okt
02:00
-2°
Voelt als: -5.0°
1019.0 hPa 5.9 mm -5.4°
2
11% warningclass
05:00
-2°
Voelt als: -4.8°
1020.5 hPa 2.7 mm -4.9°
2
18% warningclass
08:00
-2°
Voelt als: -4.2°
1022.1 hPa 3.3 mm -4.5°
2
25% warningclass
11:00
-1°
Voelt als: -3.5°
1024.1 hPa 0.2 mm -4.3°
2
31% warningclass
14:00
-0°
Voelt als: -3.2°
1026.1 hPa 0.3 mm -4.5°
3
37% warningclass
17:00
-1°
Voelt als: -4.4°
1027.8 hPa   -5.3°
3
24%
20:00
-2°
Voelt als: -5.6°
1029.6 hPa   -6.0°
3
11%
23:00
-2°
Voelt als: -6.3°
1031.2 hPa   -6.5°
3
6%
 08:32     17:12    Daglengte: 8:40 Dinsdag 30 Okt
02:00
-3°
Voelt als: -7.1°
1032.7 hPa   -6.9°
3
1%
05:00
-3°
Voelt als: -7.1°
1033.9 hPa   -5.7°
4
11%
08:00
-2°
Voelt als: -7.0°
1035.1 hPa   -4.4°
4
22%
14:00
Voelt als: -3.4°
1035.7 hPa   -4.5°
5
11%
20:00
-1°
Voelt als: -6.5°
1034.4 hPa 0.1 mm -4.0°
6
24%
 08:34     17:09    Daglengte: 8:35 Woensdag 31 Okt
02:00
-2°
Voelt als: -6.9°
1031.9 hPa   -5.9°
5
92%
08:00
-2°
Voelt als: -6.7°
1028.7 hPa 2.2 mm -2.2°
5
92% warningclass
14:00
Voelt als: -2.9°
1026.6 hPa 2.7 mm 0.0°
3
92% warningclass
20:00
Voelt als: -1.3°
1025.4 hPa 7.2 mm 1.2°
3
92%
 08:37     17:06    Daglengte: 8:29 Donderdag 01 Nov
02:00
Voelt als: 0.8°
1025.3 hPa 1.1 mm 1.6°
2
92%
08:00
Voelt als: 1.2°
1027.7 hPa   2.2°
2
92%
14:00
Voelt als: 2.6°
1030.5 hPa 0.1 mm 3.9°
2
82%
20:00
Voelt als: 4.4°
1021.2 hPa 0.1 mm 5.9°
4
1%
 08:40     17:03    Daglengte: 8:23 Vrijdag 02 Nov
02:00
Voelt als: 1.6°
1021.9 hPa 0.6 mm 1.4°
1
67%
08:00
Voelt als: 1.4°
1022.5 hPa 0.7 mm 1.6°
1
69%
14:00
Voelt als: 3.2°
1023.5 hPa 0.4 mm 2.5°
1
73%
20:00
Voelt als: 2.1°
1024.2 hPa 0.4 mm 1.9°
1
70%
 08:42     17:01    Daglengte: 8:19 Zaterdag 03 Nov
02:00
Voelt als: 1.8°
1024.5 hPa 0.3 mm 1.9°
1
69%
08:00
Voelt als: 1.2°
1024.3 hPa 0.5 mm 1.6°
1
70%
14:00
Voelt als: 3.1°
1024.6 hPa 0.7 mm 2.6°
1
77%
20:00
Voelt als: 2.1°
1025.1 hPa 0.8 mm 2.3°
1
75%
 08:45     16:58    Daglengte: 8:13 Zondag 04 Nov
02:00
Voelt als: 2.3°
1025.6 hPa 0.6 mm 2.3°
1
73%
08:00
Voelt als: 2.1°
1025.6 hPa 0.3 mm 2.2°
1
73%
14:00
Voelt als: 3.6°
1026.2 hPa 0.5 mm 3.0°
1
73%
20:00
Voelt als: 2.1°
1026.6 hPa 0.3 mm 2.3°
1
71%
 08:48     16:55    Daglengte: 8:07 Maandag 05 Nov
02:00
Voelt als: 2.4°
1026.7 hPa 0.3 mm 2.4°
1
73%
08:00
Voelt als: 1.7°
1026.3 hPa 0.4 mm 2.1°
1
78%
14:00
Voelt als: 2.6°
1026.0 hPa 0.3 mm 2.6°
2
76%
20:00
Voelt als: 1.4°
1024.9 hPa 0.9 mm 2.4°
2
78%
 08:51     16:53    Daglengte: 8:02 Dinsdag 06 Nov
02:00
Voelt als: 1.5°
1024.2 hPa 0.7 mm 2.4°
2
81%
08:00
Voelt als: 1.6°
1023.2 hPa 0.6 mm 2.1°
2
79%
14:00
Voelt als: 2.8°
1023.1 hPa 0.8 mm 2.7°
2
83%
20:00
Voelt als: 1.7°
1022.6 hPa 0.7 mm 2.3°
2
79%
 08:53     16:50    Daglengte: 7:57 Woensdag 07 Nov
02:00
Voelt als: 1.2°
1023.0 hPa 0.5 mm 1.7°
2
68%
  CAPE Lifted Index Hail Supercell Tornado SRH 3km CL BTM PRES CL TOP PRES Swiss DWD icon SMHI TS
 08:13     17:32    Daglengte: 9:19 Vandaag
09:00 0 J/kg 3.5 K 0 % 0 % 0 % 0 m²/s² 0 0 4.88 2
10:00 0 J/kg 4.2 K 0 % 0 % 0 % 0 m²/s² 0 0 5.34 2
11:00 0 J/kg 2.9 K 0 % 0 % 0 % 0 m²/s² 0 0 3.95 3
12:00 7 J/kg 2.2 K 0 % 0 % 0 % 0 m²/s² 0 0 3.16 2
13:00 89 J/kg 2.0 K 0 % 0 % 0 % 0 m²/s² 0 0 2.51 3
14:00 41 J/kg 2.5 K 0 % 0 % 0 % 0 m²/s² 0 0 3.04 3
15:00 31 J/kg 2.2 K 0 % 0 % 0 % 0 m²/s² 0 0 2.92 80
16:00 75 J/kg 2.1 K 0 % 0 % 0 % 0 m²/s² 0 0 2.91 3
17:00 102 J/kg 1.5 K 0 % 0 % 0 % 0 m²/s² 0 0 2.1 3
18:00 93 J/kg 1.6 K 0 % 0 % 0 % 0 m²/s² 0 0 3.01 3
19:00 61 J/kg 2.2 K 0 % 0 % 0 % 0 m²/s² 0 0 3.67 80
20:00 39 J/kg 2.7 K 0 % 0 % 0 % 0 m²/s² 0 0 4.17 3
21:00 20 J/kg 3.2 K 0 % 0 % 0 % 0 m²/s² 0 0 4.73 3
22:00 9 J/kg 3.5 K 0 % 0 % 0 % 0 m²/s² 0 0 4.91 3
23:00 2 J/kg 3.7 K 0 % 0 % 0 % 0 m²/s² 0 0 4.93 3
 08:15     17:29    Daglengte: 9:14 Morgen
00:00 10 J/kg 3.9 K 0 % 0 % 0 % 0 m²/s² 0 0 4.92 3
01:00 9 J/kg 4.0 K 0 % 0 % 0 % 0 m²/s² 0 0 4.9 3
02:00 12 J/kg 3.8 K 0 % 0 % 0 % 0 m²/s² 0 0 4.55 3
03:00 10 J/kg 4.2 K 0 % 0 % 0 % 0 m²/s² 0 0 4.95 61
04:00 6 J/kg 4.9 K 0 % 0 % 0 % 0 m²/s² 0 0 5.71 3
05:00 7 J/kg 5.2 K 0 % 0 % 0 % 0 m²/s² 0 0 6.28 3
06:00 11 J/kg 5.3 K 0 % 0 % 0 % 0 m²/s² 0 0 6.5 3
07:00 12 J/kg 5.2 K 0 % 0 % 0 % 0 m²/s² 0 0 6.46 3
08:00 25 J/kg 4.7 K 0 % 0 % 0 % 0 m²/s² 0 0 6.38 3
09:00 63 J/kg 3.6 K 0 % 0 % 0 % 0 m²/s² 0 0 5.58 3
10:00 74 J/kg 3.3 K 0 % 0 % 0 % 0 m²/s² 0 0 5.52 3
11:00 100 J/kg 2.7 K 0 % 0 % 0 % 0 m²/s² 0 0 4.92 3
12:00 128 J/kg 2.2 K 0 % 0 % 0 % 0 m²/s² 0 0 4.54 3
13:00 132 J/kg 1.9 K 0 % 0 % 0 % 0 m²/s² 0 0 4.24 3
14:00 102 J/kg 2.0 K 0 % 0 % 0 % 0 m²/s² 0 0 4.28 3
15:00 53 J/kg 2.6 K 0 % 0 % 0 % 0 m²/s² 0 0 4.88 3
16:00 42 J/kg 2.5 K 0 % 0 % 0 % 0 m²/s² 0 0 4.78 3
17:00 53 J/kg 1.9 K 0 % 0 % 0 % 0 m²/s² 0 0 4.09 2
18:00 56 J/kg 1.4 K 0 % 0 % 0 % 0 m²/s² 0 0 3.59 3
19:00 56 J/kg 1.2 K 0 % 0 % 0 % 0 m²/s² 0 0 3.39 3
20:00 51 J/kg 1.0 K 0 % 0 % 0 % 0 m²/s² 0 0 3.13 3
21:00 48 J/kg 0.9 K 0 % 0 % 0 % 0 m²/s² 0 0 2.97 3
22:00 32 J/kg 0.7 K 0 % 0 % 0 % 0 m²/s² 0 0 2.47 3
23:00 29 J/kg 0.5 K 0 % 0 % 0 % 0 m²/s² 0 0 2 3
 08:18     17:26    Daglengte: 9:08 Donderdag 25 Okt
00:00 47 J/kg 0.3 K 0 % 0 % 0 % 0 m²/s² 0 0 0.99 3
01:00 61 J/kg 0.1 K 0 % 0 % 0 % 0 m²/s² 0 0 0.67 3
02:00 16 J/kg 0.4 K 0 % 0 % 0 % 0 m²/s² 0 0 1.09 3
03:00 7 J/kg 0.4 K 0 % 0 % 0 % 0 m²/s² 0 0 1.93 2
04:00 2 J/kg 0.7 K 0 % 0 % 0 % 0 m²/s² 0 0 4.54 2
05:00 5 J/kg 1.1 K 0 % 0 % 0 % 0 m²/s² 0 0 5.54 1
06:00 4 J/kg 1.3 K 0 % 0 % 0 % 0 m²/s² 0 0 4.84 0
07:00 4 J/kg 1.6 K 0 % 0 % 0 % 0 m²/s² 0 0 3.91 0
08:00 0 J/kg 2.4 K 0 % 0 % 0 % 0 m²/s² 0 0 4.26 0
09:00 0 J/kg 2.9 K 0 % 0 % 0 % 0 m²/s² 0 0 4.94 0
10:00 0 J/kg 2.1 K 0 % 0 % 0 % 0 m²/s² 0 0 4.35 3
11:00 0 J/kg 0.9 K 0 % 0 % 0 % 0 m²/s² 0 0 3.33 3
12:00 0 J/kg 0.4 K 0 % 0 % 0 % 0 m²/s² 0 0 1.39 2
13:00 1 J/kg 0.1 K 0 % 0 % 0 % 0 m²/s² 0 0 0.67 2
14:00 3 J/kg 0.2 K 0 % 0 % 0 % 0 m²/s² 0 0 1.64 3
15:00 25 J/kg -0.1 K 0 % 0 % 0 % 0 m²/s² 0 0 1.07 2
16:00 109 J/kg -0.7 K 0 % 0 % 0 % 0 m²/s² 0 0 -0.01 3
17:00 164 J/kg -0.8 K 0 % 0 % 0 % 0 m²/s² 0 0 0.1 3
18:00 134 J/kg -0.7 K 0 % 0 % 0 % 0 m²/s² 0 0 0.26 2
19:00 90 J/kg -0.6 K 0 % 0 % 0 % 0 m²/s² 0 0 0.27 2
20:00 60 J/kg -0.3 K 0 % 0 % 0 % 0 m²/s² 0 0 0.66 3
21:00 41 J/kg 0.1 K 0 % 0 % 0 % 0 m²/s² 0 0 1.09 3
22:00 71 J/kg 0.0 K 0 % 0 % 0 % 0 m²/s² 0 0 1.23 3
23:00 98 J/kg -0.4 K 0 % 0 % 0 % 0 m²/s² 0 0 1.13 3
 08:21     17:23    Daglengte: 9:02 Vrijdag 26 Okt
00:00 28 J/kg 0.2 K 0 % 0 % 0 % 0 m²/s² 0 0 2.12 3
01:00 18 J/kg 0.7 K 0 % 0 % 0 % 0 m²/s² 0 0 2.56 3
02:00 15 J/kg 0.9 K 0 % 0 % 0 % 0 m²/s² 0 0 2.58 3
03:00 19 J/kg 1.3 K 0 % 0 % 0 % 0 m²/s² 0 0 2.92 3
04:00 21 J/kg 1.6 K 0 % 0 % 0 % 0 m²/s² 0 0 3.76 2
05:00 23 J/kg 2.0 K 0 % 0 % 0 % 0 m²/s² 0 0 5.51 1
06:00 19 J/kg 2.3 K 0 % 0 % 0 % 0 m²/s² 0 0 6.62 0
07:00 18 J/kg 2.7 K 0 % 0 % 0 % 0 m²/s² 0 0 7.23 1
08:00 13 J/kg 3.1 K 0 % 0 % 0 % 0 m²/s² 0 0 7.39 1
Temp Baro Wind Neerslag
  EWN Forecast EWN WRFDA DWD ICON FMI HIRLAM MET Norway GFS
 08:13     17:32    Daglengte: 9:19 Vandaag
09:00 1.5° 996.8 hPa 2.5 m/s 0.0 mm 1.8° 994.9 hPa 3.8 m/s 0.0 mm 2.7° 997.0 hPa 2.0 m/s -2.0 mm 1.4° 997.0 hPa 2.6 m/s 0.0 mm -0.1° 997.0 hPa 2.3 m/s 3.2° 996.9 hPa 2.5 m/s
12:00 4.4° 994.4 hPa 2.0 m/s 0.0 mm 5.9° 991.9 hPa 2.1 m/s 0.0 mm 5.4° 994.6 hPa 2.0 m/s 0.0 mm 4.9° 994.5 hPa 1.8 m/s 0.0 mm 3.8° 994.9 hPa 2.2 m/s 0.0 mm 6.6° 994.8 hPa 2.7 m/s
15:00 5.3° 991.6 hPa 2.9 m/s 0.3 mm 6.1° 989.0 hPa 3.3 m/s 2.8 mm 6.1° 991.5 hPa 2.9 m/s 0.2 mm 5.8° 991.9 hPa 3.3 m/s 0.0 mm 4.4° 992.5 hPa 1.9 m/s 0.0 mm 6.4° 991.6 hPa 2.9 m/s
18:00 5.0° 989.6 hPa 3.5 m/s 0.7 mm 6.5° 986.0 hPa 5.3 m/s 7.0 mm 5.5° 989.6 hPa 2.9 m/s 0.3 mm 5.4° 990.0 hPa 3.5 m/s 0.0 mm 3.5° 990.2 hPa 2.7 m/s 0.0 mm 6.1° 989.0 hPa 3.9 m/s
21:00 4.3° 988.2 hPa 3.6 m/s 0.0 mm 5.1° 984.3 hPa 5.8 m/s 9.4 mm 4.8° 988.0 hPa 3.2 m/s 0.2 mm 5.3° 988.3 hPa 4.0 m/s 0.0 mm 3.1° 988.8 hPa 2.2 m/s 0.0 mm 5.0° 986.6 hPa 4.9 m/s
 08:15     17:29    Daglengte: 9:14 Morgen
00:00 3.4° 987.5 hPa 4.1 m/s 0.0 mm 4.6° 983.3 hPa 5.7 m/s 9.4 mm 3.9° 986.7 hPa 3.9 m/s 0.0 mm 4.4° 987.5 hPa 4.5 m/s 0.0 mm 1.7° 988.1 hPa 2.6 m/s 0.0 mm 4.3° 985.1 hPa 5.1 m/s
03:00 3.4° 987.5 hPa 4.5 m/s 0.0 mm 4.4° 983.3 hPa 6.6 m/s 9.5 mm 4.0° 986.7 hPa 4.3 m/s 0.2 mm 4.3° 987.4 hPa 5.0 m/s 0.0 mm 0.8° 988.2 hPa 2.9 m/s 0.0 mm 4.2° 984.9 hPa 5.2 m/s
06:00 3.6° 988.6 hPa 4.3 m/s 0.0 mm 4.1° 984.3 hPa 6.5 m/s 9.5 mm 4.2° 988.5 hPa 4.2 m/s 0.1 mm 4.6° 988.4 hPa 4.9 m/s 0.0 mm 1.5° 989.2 hPa 3.0 m/s 0.0 mm 4.6° 986.0 hPa 4.7 m/s
09:00 4.0° 990.4 hPa 4.7 m/s 0.0 mm 5.0° 986.6 hPa 6.4 m/s 9.5 mm 4.4° 990.1 hPa 4.3 m/s 0.0 mm 5.1° 990.0 hPa 5.2 m/s 0.0 mm 2.9° 990.9 hPa 3.0 m/s 0.0 mm 4.6° 988.6 hPa 4.2 m/s
12:00 4.9° 992.6 hPa 5.3 m/s 0.0 mm 6.7° 989.1 hPa 6.0 m/s 9.5 mm 5.2° 992.6 hPa 4.7 m/s 0.0 mm 5.6° 992.0 hPa 5.1 m/s 0.0 mm 4.4° 993.0 hPa 5.5 m/s 0.0 mm 6.4° 991.1 hPa 5.4 m/s
15:00 5.1° 994.7 hPa 4.9 m/s 0.0 mm 7.3° 990.8 hPa 5.4 m/s 9.6 mm 5.9° 994.0 hPa 4.7 m/s 0.0 mm 5.7° 994.4 hPa 4.7 m/s 0.0 mm 3.8° 995.4 hPa 5.6 m/s 0.0 mm 5.1° 993.3 hPa 5.2 m/s
18:00 4.5° 996.2 hPa 4.2 m/s 0.0 mm 6.0° 992.2 hPa 4.5 m/s 9.6 mm 4.6° 995.5 hPa 4.0 m/s 0.0 mm 5.4° 996.0 hPa 5.3 m/s 0.0 mm 3.4° 997.0 hPa 3.6 m/s 0.0 mm 4.1° 995.2 hPa 3.9 m/s
21:00 3.6° 997.0 hPa 3.2 m/s 0.0 mm 5.1° 993.1 hPa 1.8 m/s 9.6 mm 3.4° 996.4 hPa 3.2 m/s 0.0 mm 5.0° 997.0 hPa 4.5 m/s 0.0 mm 2.4° 997.8 hPa 2.7 m/s 0.0 mm 3.8° 996.1 hPa 2.8 m/s
 08:18     17:26    Daglengte: 9:08 Donderdag 25 Okt
00:00 3.4° 996.8 hPa 2.6 m/s 0.0 mm 4.2° 992.8 hPa 1.7 m/s 9.9 mm 3.2° 995.9 hPa 3.1 m/s 0.0 mm 4.1° 997.0 hPa 3.1 m/s 0.0 mm 2.6° 997.8 hPa 2.3 m/s 0.0 mm 3.7° 995.8 hPa 2.6 m/s
03:00 2.9° 996.1 hPa 2.9 m/s 0.0 mm 4.1° 991.9 hPa 3.3 m/s 10.8 mm 2.7° 995.1 hPa 2.9 m/s 0.0 mm 3.7° 996.5 hPa 3.1 m/s 0.0 mm 2.3° 997.2 hPa 1.8 m/s 0.0 mm 2.5° 995.0 hPa 2.1 m/s
06:00 1.6° 994.6 hPa 2.1 m/s 0.0 mm 1.5° 990.8 hPa 3.0 m/s 11.0 mm 1.2° 994.2 hPa 2.2 m/s 0.0 mm 1.6° 995.9 hPa 1.1 m/s 0.0 mm 1.1° 993.7 hPa 1.7 m/s
09:00 1.3° 993.9 hPa 1.4 m/s 0.0 mm 1.8° 990.5 hPa 2.9 m/s 11.0 mm 0.7° 993.5 hPa 1.8 m/s 0.0 mm 1.2° 995.4 hPa 0.8 m/s 0.0 mm 1.5° 993.4 hPa 1.4 m/s
12:00 2.5° 993.4 hPa 1.1 m/s 0.0 mm 4.3° 990.0 hPa 2.1 m/s 11.2 mm 3.0° 993.2 hPa 2.2 m/s 0.0 mm 2.0° 994.9 hPa 0.9 m/s 0.0 mm 3.2° 992.9 hPa 1.2 m/s
15:00 3.4° 993.0 hPa 1.6 m/s 0.0 mm 5.0° 989.7 hPa 1.2 m/s 17.1 mm 3.5° 993.0 hPa 2.3 m/s 0.0 mm 3.3° 994.4 hPa 1.5 m/s 0.0 mm 4.1° 992.8 hPa 1.0 m/s
18:00 2.2° 993.2 hPa 1.6 m/s 0.0 mm 4.9° 989.6 hPa 1.8 m/s 18.0 mm 2.4° 993.1 hPa 1.6 m/s 0.0 mm 1.7° 994.4 hPa 1.0 m/s 0.0 mm 3.4° 993.0 hPa 1.0 m/s
21:00 1.2° 993.8 hPa 1.9 m/s 0.0 mm 3.2° 989.6 hPa 3.8 m/s 19.1 mm 1.5° 993.3 hPa 1.1 m/s 0.0 mm 0.4° 994.6 hPa 1.4 m/s 0.0 mm 3.0° 993.1 hPa 1.9 m/s
 08:21     17:23    Daglengte: 9:02 Vrijdag 26 Okt
00:00 1.1° 993.8 hPa 2.6 m/s 0.0 mm 3.2° 989.2 hPa 4.3 m/s 19.3 mm 1.4° 993.5 hPa 0.8 m/s 0.0 mm 0.9° 994.2 hPa 2.5 m/s 2.6° 992.9 hPa 2.2 m/s
03:00 1.3° 993.7 hPa 3.4 m/s 0.0 mm 2.6° 989.8 hPa 5.5 m/s 20.3 mm 0.9° 993.6 hPa 1.1 m/s 0.0 mm 1.4° 993.9 hPa 3.5 m/s 1.7° 993.4 hPa 3.1 m/s
06:00 1.4° 993.6 hPa 3.4 m/s 0.0 mm 2.4° 990.4 hPa 4.5 m/s 21.0 mm 0.4° 993.5 hPa 1.8 m/s 0.0 mm 1.4° 994.2 hPa 3.5 m/s 1.3° 994.0 hPa 4.2 m/s
09:00 1.2° 994.0 hPa 3.7 m/s 0.0 mm 1.7° 990.9 hPa 5.5 m/s 21.4 mm -0.1° 993.9 hPa 2.8 m/s 0.0 mm 1.4° 994.6 hPa 3.6 m/s 0.8° 994.7 hPa 5.2 m/s
12:00 2.1° 996.4 hPa 4.0 m/s 0.0 mm 2.2° 996.5 hPa 3.9 m/s 1.0° 995.5 hPa 5.7 m/s 0.0 mm
15:00 2.5° 997.3 hPa 4.2 m/s 0.0 mm 2.6° 997.4 hPa 4.0 m/s 1.1° 996.3 hPa 6.4 m/s 0.1 mm
18:00 1.9° 998.7 hPa 3.6 m/s 0.0 mm 2.0° 998.9 hPa 3.3 m/s 1.1° 997.0 hPa 7.0 m/s 0.1 mm
21:00 1.5° 1000.2 hPa 2.9 m/s 0.2 mm 1.4° 1000.4 hPa 2.6 m/s 2.1° 998.1 hPa 6.6 m/s 0.2 mm
 08:23     17:20    Daglengte: 8:57 Zaterdag 27 Okt
00:00 1.0° 1001.3 hPa 2.3 m/s 0.0 mm 0.9° 1001.5 hPa 2.0 m/s 1.3° 999.0 hPa 5.5 m/s 0.0 mm
03:00 0.5° 1002.4 hPa 1.6 m/s 0.0 mm 0.5° 1002.6 hPa 1.4 m/s 0.2° 1000.2 hPa 4.2 m/s 0.0 mm
06:00 0.4° 1002.7 hPa 1.6 m/s 0.0 mm 0.5° 1002.9 hPa 1.5 m/s -1.0° 1000.5 hPa 2.9 m/s 0.0 mm
09:00 0.4° 1002.9 hPa 1.6 m/s 0.0 mm 0.5° 1003.1 hPa 1.6 m/s -1.2° 1000.8 hPa 1.4 m/s 0.0 mm
12:00 1.4° 1002.1 hPa 2.5 m/s 0.0 mm 1.4° 1002.2 hPa 2.5 m/s 1.1° 1000.5 hPa 1.7 m/s 0.0 mm
15:00 2.4° 1001.2 hPa 3.5 m/s 0.0 mm 2.4° 1001.4 hPa 3.5 m/s 2.0° 998.8 hPa 3.6 m/s 0.0 mm
18:00 1.6° 1000.0 hPa 4.1 m/s 0.0 mm 1.6° 1000.2 hPa 4.0 m/s 1.2° 998.0 hPa 5.0 m/s 0.0 mm
21:00 0.8° 998.9 hPa 4.6 m/s 0.0 mm 0.8° 999.0 hPa 4.5 m/s 1.2° 997.7 hPa 6.1 m/s 0.1 mm
 08:26     17:17    Daglengte: 8:51 Zondag 28 Okt
00:00 0.7° 999.8 hPa 5.1 m/s 0.5 mm 0.7° 999.9 hPa 5.0 m/s 1.1° 998.3 hPa 6.2 m/s 0.5 mm
03:00 0.6° 1000.7 hPa 5.6 m/s 1.0 mm 0.6° 1000.8 hPa 5.5 m/s 1.1° 999.3 hPa 6.2 m/s 1.0 mm
05:00 0.3° 1003.5 hPa 5.0 m/s 0.7 mm 0.2° 1003.8 hPa 5.0 m/s 0.9° 1000.1 hPa 5.8 m/s 0.7 mm
08:00 -0.0° 1006.4 hPa 4.5 m/s 1.2 mm -0.1° 1006.9 hPa 4.4 m/s 1.1° 1001.5 hPa 5.7 m/s 1.2 mm
11:00 0.4° 1009.1 hPa 4.4 m/s 0.3 mm 0.3° 1009.7 hPa 4.2 m/s 1.7° 1002.8 hPa 5.6 m/s 0.3 mm
14:00 0.8° 1011.8 hPa 4.2 m/s 1.1 mm 0.7° 1012.5 hPa 4.1 m/s 1.8° 1004.1 hPa 5.7 m/s 1.1 mm
17:00 -0.0° 1013.8 hPa 3.4 m/s 0.8 mm -0.2° 1014.5 hPa 3.2 m/s 1.6° 1005.2 hPa 6.2 m/s 0.8 mm
20:00 -0.8° 1015.7 hPa 2.7 m/s 2.1 mm -1.0° 1016.6 hPa 2.3 m/s 1.9° 1006.1 hPa 7.0 m/s 2.1 mm
23:00 -1.2° 1017.4 hPa 2.6 m/s 2.4 mm -1.6° 1018.4 hPa 2.1 m/s 2.4° 1006.6 hPa 8.0 m/s 2.4 mm
 08:29     17:14    Daglengte: 8:45 Maandag 29 Okt
02:00 -1.7° 1019.0 hPa 2.4 m/s 5.9 mm -2.1° 1020.1 hPa 1.9 m/s 2.5° 1007.2 hPa 8.1 m/s 5.9 mm
05:00 -1.8° 1020.5 hPa 2.1 m/s 2.7 mm -2.2° 1021.7 hPa 1.5 m/s 2.7° 1007.7 hPa 8.5 m/s 2.7 mm
08:00 -1.9° 1022.1 hPa 1.7 m/s 3.3 mm -2.4° 1023.3 hPa 1.2 m/s 3.2° 1009.0 hPa 6.8 m/s 3.3 mm
11:00 -0.9° 1024.1 hPa 2.0 m/s 0.2 mm -1.4° 1025.3 hPa 1.9 m/s 4.7° 1011.3 hPa 4.1 m/s 0.2 mm
14:00 -0.0° 1026.1 hPa 2.6 m/s 0.3 mm -0.4° 1027.3 hPa 2.5 m/s 3.9° 1012.7 hPa 4.2 m/s 0.3 mm
17:00 -1.1° 1027.8 hPa 2.6 m/s 0.0 mm -1.4° 1029.1 hPa 2.6 m/s 1.9° 1014.0 hPa 2.9 m/s 0.0 mm
20:00 -2.0° 1029.6 hPa 2.7 m/s 0.0 mm -2.3° 1030.9 hPa 2.7 m/s 1.1° 1015.6 hPa 2.6 m/s 0.0 mm
23:00 -2.4° 1031.2 hPa 2.9 m/s 0.0 mm -2.6° 1032.5 hPa 3.1 m/s 0.5° 1016.9 hPa 1.1 m/s 0.0 mm
 08:32     17:12    Daglengte: 8:40 Dinsdag 30 Okt
02:00 -2.7° 1032.7 hPa 3.3 m/s 0.0 mm -3.0° 1034.0 hPa 3.5 m/s 0.2° 1018.2 hPa 1.4 m/s 0.0 mm
05:00 -2.6° 1033.9 hPa 3.6 m/s 0.0 mm -2.8° 1035.2 hPa 3.7 m/s -0.6° 1018.8 hPa 2.0 m/s 0.0 mm
08:00 -2.4° 1035.1 hPa 3.8 m/s 0.0 mm -2.6° 1036.5 hPa 3.9 m/s 0.0° 1019.9 hPa 2.4 m/s 0.0 mm
14:00 1.4° 1035.7 hPa 5.5 m/s 0.0 mm 1.2° 1037.2 hPa 5.6 m/s 3.7° 1019.7 hPa 4.2 m/s 0.0 mm
20:00 -0.9° 1034.4 hPa 5.8 m/s 0.0 mm -1.3° 1035.8 hPa 5.9 m/s 3.9° 1019.4 hPa 5.0 m/s 0.1 mm
 08:34     17:09    Daglengte: 8:35 Woensdag 31 Okt
02:00 -1.5° 1031.9 hPa 5.2 m/s 0.0 mm -2.0° 1033.1 hPa 5.1 m/s 3.6° 1018.2 hPa 6.2 m/s 0.0 mm
08:00 -1.5° 1028.7 hPa 4.8 m/s 1.7 mm -2.0° 1029.9 hPa 4.6 m/s 3.8° 1015.1 hPa 6.8 m/s 1.7 mm
14:00 0.6° 1026.6 hPa 3.1 m/s 1.8 mm 0.0° 1028.0 hPa 2.9 m/s 7.2° 1011.7 hPa 5.4 m/s 1.8 mm
20:00 1.6° 1025.4 hPa 2.7 m/s 6.2 mm 1.0° 1026.8 hPa 2.6 m/s 8.5° 1010.5 hPa 4.0 m/s 6.2 mm
 08:37     17:06    Daglengte: 8:29 Donderdag 01 Nov
02:00 2.3° 1025.3 hPa 1.5 m/s 0.5 mm 1.9° 1026.4 hPa 1.3 m/s 6.4° 1013.7 hPa 4.2 m/s 0.5 mm
08:00 2.7° 1027.7 hPa 1.7 m/s 0.0 mm 2.4° 1028.7 hPa 1.3 m/s 6.6° 1016.7 hPa 5.6 m/s 0.1 mm
14:00 4.5° 1030.5 hPa 2.1 m/s 0.0 mm 4.1° 1031.5 hPa 1.8 m/s 8.4° 1019.2 hPa 5.2 m/s 0.1 mm
20:00 6.8° 1021.2 hPa 3.5 m/s 0.0 mm 6.8° 1021.2 hPa 3.5 m/s 0.1 mm
 08:40     17:03    Daglengte: 8:23 Vrijdag 02 Nov
02:00 2.4° 1021.9 hPa 1.2 m/s 0.6 mm
08:00 2.5° 1022.5 hPa 1.3 m/s 0.7 mm
14:00 4.0° 1023.5 hPa 1.2 m/s 0.4 mm
20:00 2.8° 1024.2 hPa 1.1 m/s 0.4 mm
 08:42     17:01    Daglengte: 8:19 Zaterdag 03 Nov
02:00 2.6° 1024.5 hPa 1.2 m/s 0.3 mm
08:00 2.4° 1024.3 hPa 1.3 m/s 0.5 mm
14:00 4.1° 1024.6 hPa 1.3 m/s 0.7 mm
20:00 3.1° 1025.1 hPa 1.3 m/s 0.8 mm
 08:45     16:58    Daglengte: 8:13 Zondag 04 Nov
02:00 3.2° 1025.6 hPa 1.2 m/s 0.6 mm
08:00 3.1° 1025.6 hPa 1.3 m/s 0.3 mm
14:00 4.5° 1026.2 hPa 1.4 m/s 0.5 mm
20:00 3.1° 1026.6 hPa 1.3 m/s 0.3 mm
 08:48     16:55    Daglengte: 8:07 Maandag 05 Nov
02:00 3.2° 1026.7 hPa 1.2 m/s 0.3 mm
08:00 3.0° 1026.3 hPa 1.4 m/s 0.4 mm
14:00 4.3° 1026.0 hPa 2.0 m/s 0.3 mm
20:00 3.5° 1024.9 hPa 2.2 m/s 0.9 mm
 08:51     16:53    Daglengte: 8:02 Dinsdag 06 Nov
02:00 3.5° 1024.2 hPa 2.0 m/s 0.7 mm
08:00 3.3° 1023.2 hPa 1.8 m/s 0.6 mm
14:00 4.4° 1023.1 hPa 1.8 m/s 0.8 mm
20:00 3.4° 1022.6 hPa 1.8 m/s 0.7 mm
 08:53     16:50    Daglengte: 7:57 Woensdag 07 Nov
02:00 2.6° 1023.0 hPa 1.5 m/s 0.5 mm
FMI Hirlam - 7.5 km EWN WRFDA - 12 km DWD ICON - 7 km GFS - 25 km Basiskaart






























































Updatetijd (Europe/Amsterdam) Resolutie Lengte Stap
FMI Hirlam 07:15, 13:15, 19:15, 01:15 7.5 km 49h 1h
EWN WRFDA 03:30, 09:30, 15:30, 21:30 12 km 73h 1h
DWD ICON 06:45, 12:45, 18:45, 00:45 7 km 75h 1h
GFS 03:15, 09:15, 15:15, 21:15 25 km 237h 3h
30+ mm
25-30 mm
20-25 mm
15-20 mm
10-15 mm
6-10 mm
4-6 mm
2-4 mm
1-2 mm
0.5-1 mm
0.2-0.5 mm
0.1-0.2 mm
30+ mm
25-30 mm
20-25 mm
15-20 mm
10-15 mm
6-10 mm
4-6 mm
2-4 mm
1-2 mm
0.5-1 mm
0.2-0.5 mm
0.1-0.2 mm
Sneeuwval
Natte sneeuw
Hagel
Vorst
30+ mm
25-30 mm
20-25 mm
15-20 mm
10-15 mm
6-10 mm
4-6 mm
2-4 mm
1-2 mm
0.5-1 mm
0.2-0.5 mm
0.1-0.2 mm
Sneeuwval
Natte sneeuw
Hagel
Vorst
Onweer
50 mm
40 mm
30 mm
26 mm
22 mm
18 mm
14 mm
10 mm
9 mm
8 mm
7 mm
6 mm
5 mm
4.5 mm
4 mm
3.5 mm
3 mm
2.5 mm
2 mm
1.5 mm
1 mm
0.8 mm
0.6 mm
0.4 mm
0.2 mm
0.05 mm
35°
30°
25°
20°
15°
10°
-5°
-10°
-15°
-20°
-25°
-30°
-35°
33> m/s
29 m/s
25 m/s
21 m/s
17 m/s
14 m/s
11 m/s
8 m/s
5 m/s
3 m/s
0 m/s
2600 J/kg
2400 J/kg
2200 J/kg
2000 J/kg
1800 J/kg
1600 J/kg
1400 J/kg
1200 J/kg
1000 J/kg
800 J/kg
600 J/kg
400 J/kg
200 J/kg
70 dBZ
65 dBZ
60 dBZ
55 dBZ
50 dBZ
45 dBZ
40 dBZ
35 dBZ
30 dBZ
25 dBZ
20 dBZ
15 dBZ
10 dBZ
5 dBZ
-1 K
-2 K
-3 K
-4 K
-5 K
-6 K
-7 K
-8 K
-9 K
950 m²/s²
900 m²/s²
850 m²/s²
800 m²/s²
750 m²/s²
700 m²/s²
650 m²/s²
600 m²/s²
550 m²/s²
500 m²/s²
450 m²/s²
400 m²/s²
350 m²/s²
300 m²/s²
250 m²/s²
200 m²/s²
150 m²/s²
100 m²/s²
46 m/s
44 m/s
42 m/s
40 m/s
38 m/s
36 m/s
34 m/s
32 m/s
30 m/s
28 m/s
26 m/s
24 m/s
22 m/s
20 m/s
16 m/s
12 m/s
8 m/s
4 m/s
30 m/s
28 m/s
26 m/s
24 m/s
22 m/s
20 m/s
18 m/s
16 m/s
14 m/s
12 m/s
10 m/s
8 m/s
6 m/s
4 m/s
2 m/s
3.0
2.8
2.6
2.4
2.2
2.0
1.8
1.6
1.4
1.2
1.0
0.8
0.6
0.4
0.2
15
14
13
12
11
10
9
8
7
6
5
4
3
2
1
90%
80%
70%
60%
50%
40%
30%
20%
10%
42
40
38
36
34
32
30
28
26
24
22
20
18
16
14
12
90+ cm
80-90 cm
70-80 cm
60-70 cm
50-60 cm
40-50 cm
30-40 cm
20-30 cm
10-20 cm
1-10 cm
Sneeuwval
Natte sneeuw
Regen
>120 mm
115 mm
110 mm
105 mm
100 mm
95 mm
90 mm
85 mm
80 mm
75 mm
70 mm
65 mm
60 mm
55 mm
50 mm
45 mm
45 mm
40 mm
35 mm
30 mm
25 mm
20 mm
15 mm
10 mm
5 mm
0.1 mm
960 hPa
880 hPa
800 hPa
720 hPa
640 hPa
560 hPa
584 gpdm
568 gpdm
552 gpdm
536 gpdm
520 gpdm
504 gpdm
488 gpdm
Extreem zwaar Noodweer Kans op onweer
15% 15% 5% 50% 15%

Dag




Kaart






35°
30°
25°
20°
15°
10°
-5°
-10°
-15°
-20°
-25°
-30°
-35°
33> m/s
29 m/s
25 m/s
21 m/s
17 m/s
14 m/s
11 m/s
8 m/s
5 m/s
3 m/s
0 m/s
Extreem zwaar Noodweer Kans op onweer
15% 15% 5% 50% 15%
>120 mm
115 mm
110 mm
105 mm
100 mm
95 mm
90 mm
85 mm
80 mm
75 mm
70 mm
65 mm
60 mm
55 mm
50 mm
45 mm
45 mm
40 mm
35 mm
30 mm
25 mm
20 mm
15 mm
10 mm
5 mm
0.1 mm
Onweer risico kaarten - De groene en gele kleur geeft de kans op onweer aan binnen 40 km van een punt. Oranje, rood en violet hebben hetzelfde niveau zoals je het ziet op estofex.org waaronder ook de kans op hagel en supercells.

dBZ - dBZ staat voor decibel ten opzichte van Z.

Cape - Convective available potential energy (CAPE), is de totale hoeveelheid energie die een luchtpakketje nodig heeft om zover mogelijk te stijgen in de atmosfeer.

K Index - K-Index wordt berekend door de Vertical Totals (VT) en het verschil tussen de 850 hPa temperatuur en de 700 hPa dauwpuntsdepressie (Tdd 700) bij elkaar op te tellen.

TT Index - Convectie index wordt gebruikt voor het voorspellen van zware buien of onweer.

WRF - The Weather Research and Forecasting (WRF) is een volgende generatie mesoscale numeriek weersvoorspelling systeem ontworpen om zowel de operationele planning als het atmosferisch onderzoek te dienen. WRF is a cooperatie tussen het National Center for Atmospheric Research (NCAR), National Centers for Environmental Prediction (NCEP), Forecast Systems Laboratory (FSL), Air Force Weather Agency (AFWA), Naval Research Laboratory, University of Oklahoma, en de Federal Aviation Administration (FAA). Deze software draait op onze server.

WRFDA - Een meer geavanceerde versie van WRF

Arome - Het 2.5 km Arome model. Verzorgd door het Noors Meteorologisch Instituut.

MET Norway - De proff-default 4km meteorological data is een beste keus selectie van meteorologische modellen gebruikt door met.no die zijn geïnterpoleerd tot een gemeenschappelijke dataset. Verzorgd door het Noorse Meteorologisch Instituut.

SMHI - Het Hirlam model verzorgd door het Zweeds meteorologisch instituut.

FMI - Het Hirlam model verzorgd door het Fins meteorologisch instituut. Dekking alleen Finland.

GFS - Het Global Forecast Systeem (GFS) is een wereldwijd numerieke weersvoorspelling computermodel, gerund door NOAA.

GEM-GDPS - Het GEM-GDPS is a wereldwijd numeriek weersvoorspelling computermodel verzorgd door het Canadees Meteorologisch Centrum.

Credits/Info: Dank aan Stefan Gofferje van sääkeskus.fi voor enkele formules van GrADS. Info: Wikipedia.

Betrouwbaarheid van de verwachting

NB! 2015-03-29: Rebuilding the accuracy-test!

EWNACC
Day 1 Good forecasts

Dag 1 Tmax

Dag 2 Tmax

Geladen verwachtingen TOP 50

Totaal geladen verwachtingen:
Plaats Latitude Longitude Verwachtingen Plaats Latitude Longitude Verwachtingen